Time,TemperatureF,DewpointF,PressureIn,WindDirection,WindDirectionDegrees,WindSpeedMPH,WindSpeedGustMPH,Humidity,HourlyPrecipIn,Conditions,Clouds,dailyrainin,SoftwareType,DateUTC
2013-02-19 00:02:00,27.0,16.0,30.13,North,0,0.0,0.0,64,0.00,,,0.00,,2013-02-19 05:02:00,
2013-02-19 00:12:00,27.0,16.0,30.13,North,0,0.0,0.0,64,0.00,,,0.00,,2013-02-19 05:12:00,
2013-02-19 00:22:00,27.0,16.0,30.12,North,0,0.0,4.0,63,0.00,,,0.00,,2013-02-19 05:22:00,
2013-02-19 00:32:00,27.0,16.0,30.12,North,0,0.0,0.0,63,0.00,,,0.00,,2013-02-19 05:32:00,
2013-02-19 00:43:00,27.0,16.0,30.12,North,0,0.0,0.0,63,0.00,,,0.00,,2013-02-19 05:43:00,
2013-02-19 00:52:00,27.0,16.0,30.12,North,0,0.0,0.0,63,0.00,,,0.00,,2013-02-19 05:52:00,
2013-02-19 01:02:00,27.0,16.0,30.11,North,0,0.0,0.0,63,0.00,,,0.00,,2013-02-19 06:02:00,
2013-02-19 01:12:00,27.0,16.0,30.11,North,0,0.0,0.0,63,0.00,,,0.00,,2013-02-19 06:12:00,
2013-02-19 01:22:00,27.0,16.0,30.11,North,0,0.0,1.0,64,0.00,,,0.00,,2013-02-19 06:22:00,
2013-02-19 01:32:00,27.0,17.0,30.10,North,0,0.0,0.0,65,0.00,,,0.00,,2013-02-19 06:32:00,
2013-02-19 01:42:00,27.0,17.0,30.10,North,0,0.0,0.0,65,0.00,,,0.00,,2013-02-19 06:42:00,
2013-02-19 01:52:00,27.0,18.0,30.09,North,0,0.0,1.0,67,0.00,,,0.00,,2013-02-19 06:52:00,
2013-02-19 02:01:00,28.0,20.0,30.07,North,0,0.0,6.0,70,0.00,,,0.00,,2013-02-19 07:01:00,
2013-02-19 02:11:00,28.0,20.0,30.07,North,0,0.0,6.0,70,0.00,,,0.00,,2013-02-19 07:11:00,
2013-02-19 02:22:00,28.0,20.0,30.07,North,0,0.0,3.0,70,0.00,,,0.00,,2013-02-19 07:22:00,
2013-02-19 02:32:00,29.0,20.0,30.07,North,0,0.0,4.0,70,0.00,,,0.00,,2013-02-19 07:32:00,
2013-02-19 02:42:00,29.0,20.0,30.07,North,0,0.0,4.0,70,0.00,,,0.00,,2013-02-19 07:42:00,
2013-02-19 02:52:00,29.0,21.0,30.06,North,0,0.0,3.0,71,0.00,,,0.00,,2013-02-19 07:52:00,
2013-02-19 03:02:00,29.0,21.0,30.06,North,0,0.0,0.0,71,0.00,,,0.00,,2013-02-19 08:02:00,
2013-02-19 03:11:00,29.0,21.0,30.06,North,0,0.0,0.0,71,0.00,,,0.00,,2013-02-19 08:11:00,
2013-02-19 03:21:00,28.0,20.0,30.06,North,0,0.0,0.0,71,0.00,,,0.00,,2013-02-19 08:21:00,
2013-02-19 03:32:00,28.0,20.0,30.06,North,0,0.0,0.0,71,0.00,,,0.00,,2013-02-19 08:32:00,
2013-02-19 03:42:00,28.0,20.0,30.06,North,0,0.0,0.0,71,0.00,,,0.00,,2013-02-19 08:42:00,
2013-02-19 03:52:00,28.0,20.0,30.05,North,0,0.0,0.0,72,0.00,,,0.00,,2013-02-19 08:52:00,
2013-02-19 04:02:00,27.0,19.0,30.05,North,0,0.0,0.0,72,0.00,,,0.00,,2013-02-19 09:02:00,
2013-02-19 04:11:00,27.0,19.0,30.05,North,0,0.0,0.0,72,0.00,,,0.00,,2013-02-19 09:11:00,
2013-02-19 04:22:00,27.0,20.0,30.04,North,0,0.0,2.0,75,0.00,,,0.00,,2013-02-19 09:22:00,
2013-02-19 04:32:00,28.0,22.0,30.03,North,0,0.0,3.0,77,0.00,,,0.00,,2013-02-19 09:32:00,
2013-02-19 04:42:00,28.0,22.0,30.03,North,0,0.0,3.0,77,0.00,,,0.00,,2013-02-19 09:42:00,
2013-02-19 04:53:00,28.0,22.0,30.01,North,0,0.0,0.0,77,0.00,,,0.00,,2013-02-19 09:53:00,
2013-02-19 05:02:00,28.0,22.0,30.01,North,0,0.0,1.0,77,0.00,,,0.00,,2013-02-19 10:02:00,
2013-02-19 05:11:00,28.0,22.0,30.01,North,0,0.0,1.0,77,0.00,,,0.00,,2013-02-19 10:11:00,
2013-02-19 05:22:00,28.0,22.0,30.01,North,0,0.0,0.0,77,0.00,,,0.00,,2013-02-19 10:22:00,
2013-02-19 05:32:00,28.0,22.0,30.00,North,0,0.0,4.0,78,0.00,,,0.00,,2013-02-19 10:32:00,
2013-02-19 05:42:00,28.0,22.0,30.00,North,0,0.0,4.0,78,0.00,,,0.00,,2013-02-19 10:42:00,
2013-02-19 05:52:00,29.0,23.0,30.00,North,0,0.0,5.0,78,0.00,,,0.00,,2013-02-19 10:52:00,
2013-02-19 06:01:00,29.0,23.0,29.98,NW,311,1.0,5.0,78,0.00,,,0.00,,2013-02-19 11:01:00,
2013-02-19 06:11:00,30.0,24.0,29.97,North,0,0.0,4.0,77,0.00,,,0.00,,2013-02-19 11:11:00,
2013-02-19 06:22:00,30.0,24.0,29.97,North,0,0.0,4.0,77,0.00,,,0.00,,2013-02-19 11:22:00,
2013-02-19 06:32:00,31.0,24.0,29.97,North,0,0.0,4.0,76,0.00,,,0.00,,2013-02-19 11:32:00,
2013-02-19 06:42:00,31.0,24.0,29.97,North,0,0.0,4.0,76,0.00,,,0.00,,2013-02-19 11:42:00,
2013-02-19 06:52:00,31.0,24.0,29.97,WNW,293,2.0,9.0,76,0.00,,,0.00,,2013-02-19 11:52:00,
2013-02-19 07:02:00,31.0,24.0,29.97,North,0,0.0,9.0,76,0.00,,,0.00,,2013-02-19 12:02:00,
2013-02-19 07:12:00,31.0,24.0,29.97,North,0,0.0,9.0,76,0.00,,,0.00,,2013-02-19 12:12:00,
2013-02-19 07:22:00,32.0,25.0,29.97,North,0,0.0,5.0,76,0.00,,,0.00,,2013-02-19 12:22:00,
2013-02-19 07:32:00,32.0,25.0,29.97,North,0,0.0,7.0,76,0.00,,,0.00,,2013-02-19 12:32:00,
2013-02-19 07:42:00,32.0,25.0,29.97,North,0,0.0,7.0,76,0.00,,,0.00,,2013-02-19 12:42:00,
2013-02-19 07:52:00,32.0,25.0,29.96,North,0,0.0,5.0,76,0.00,,,0.00,,2013-02-19 12:52:00,
2013-02-19 08:02:00,32.0,26.0,29.97,North,0,0.0,5.0,77,0.00,,,0.00,,2013-02-19 13:02:00,
2013-02-19 08:11:00,32.0,26.0,29.97,North,0,0.0,5.0,77,0.00,,,0.00,,2013-02-19 13:11:00,
2013-02-19 08:22:00,32.0,26.0,29.96,North,0,0.0,3.0,77,0.00,,,0.00,,2013-02-19 13:22:00,
2013-02-19 08:32:00,33.0,27.0,29.95,West,272,1.0,5.0,77,0.00,,,0.00,,2013-02-19 13:32:00,
2013-02-19 08:42:00,33.0,27.0,29.95,West,272,1.0,5.0,77,0.00,,,0.00,,2013-02-19 13:42:00,
2013-02-19 08:52:00,34.0,27.0,29.93,West,260,4.0,9.0,75,0.00,,,0.00,,2013-02-19 13:52:00,
2013-02-19 09:01:00,36.0,28.0,29.91,West,259,2.0,10.0,73,0.00,,,0.00,,2013-02-19 14:01:00,
2013-02-19 09:12:00,36.0,28.0,29.91,West,259,2.0,10.0,73,0.00,,,0.00,,2013-02-19 14:12:00,
2013-02-19 09:22:00,37.0,28.0,29.91,WNW,284,1.0,12.0,71,0.00,,,0.00,,2013-02-19 14:22:00,
2013-02-19 09:33:00,37.0,28.0,29.91,WSW,254,4.0,18.0,69,0.00,,,0.00,,2013-02-19 14:33:00,
2013-02-19 09:42:00,37.0,28.0,29.91,WSW,254,4.0,18.0,69,0.00,,,0.00,,2013-02-19 14:42:00,
2013-02-19 09:52:00,38.0,28.0,29.89,West,268,4.0,12.0,68,0.00,,,0.00,,2013-02-19 14:52:00,
2013-02-19 10:02:00,39.0,29.0,29.90,West,269,1.0,13.0,68,0.00,,,0.00,,2013-02-19 15:02:00,
2013-02-19 10:11:00,39.0,29.0,29.90,West,269,1.0,13.0,68,0.00,,,0.00,,2013-02-19 15:11:00,
2013-02-19 10:21:00,40.0,30.0,29.89,West,276,3.0,15.0,66,0.00,,,0.00,,2013-02-19 15:21:00,
2013-02-19 10:32:00,40.0,29.0,29.90,West,274,3.0,19.0,65,0.00,,,0.00,,2013-02-19 15:32:00,
2013-02-19 10:42:00,40.0,29.0,29.90,West,274,3.0,19.0,65,0.00,,,0.00,,2013-02-19 15:42:00,
2013-02-19 10:52:00,40.0,30.0,29.91,WNW,292,2.0,14.0,66,0.00,,,0.00,,2013-02-19 15:52:00,
2013-02-19 11:02:00,38.0,32.0,29.89,NW,304,4.0,20.0,78,0.01,,,0.01,,2013-02-19 16:02:00,
2013-02-19 11:11:00,38.0,32.0,29.89,NW,304,4.0,20.0,78,0.01,,,0.01,,2013-02-19 16:11:00,
2013-02-19 11:22:00,36.0,31.0,29.89,West,261,2.0,9.0,83,0.03,,,0.03,,2013-02-19 16:22:00,
2013-02-19 11:32:00,35.0,32.0,29.89,WNW,292,2.0,10.0,87,0.04,,,0.04,,2013-02-19 16:32:00,
2013-02-19 11:42:00,35.0,32.0,29.89,WNW,292,2.0,10.0,87,0.04,,,0.04,,2013-02-19 16:42:00,
2013-02-19 11:52:00,35.0,32.0,29.88,West,274,1.0,9.0,89,0.06,,,0.06,,2013-02-19 16:52:00,
2013-02-19 12:01:00,35.0,32.0,29.87,West,269,2.0,7.0,90,0.05,,,0.06,,2013-02-19 17:01:00,
2013-02-19 12:11:00,35.0,32.0,29.87,West,269,2.0,7.0,90,0.05,,,0.06,,2013-02-19 17:11:00,
2013-02-19 12:21:00,35.0,33.0,29.85,West,275,1.0,10.0,91,0.05,,,0.08,,2013-02-19 17:21:00,
2013-02-19 12:32:00,35.0,33.0,29.83,North,0,0.0,10.0,91,0.07,,,0.11,,2013-02-19 17:32:00,
2013-02-19 12:42:00,35.0,33.0,29.82,West,273,1.0,6.0,92,0.07,,,0.13,,2013-02-19 17:42:00,
2013-02-19 12:52:00,35.0,33.0,29.82,West,273,1.0,6.0,92,0.07,,,0.13,,2013-02-19 17:52:00,
2013-02-19 13:01:00,35.0,33.0,29.81,West,260,1.0,10.0,93,0.09,,,0.15,,2013-02-19 18:01:00,
2013-02-19 13:11:00,35.0,33.0,29.81,West,260,1.0,10.0,93,0.09,,,0.15,,2013-02-19 18:11:00,
2013-02-19 13:21:00,36.0,34.0,29.79,West,268,3.0,10.0,93,0.10,,,0.18,,2013-02-19 18:21:00,
2013-02-19 13:32:00,37.0,35.0,29.78,North,0,0.0,16.0,94,0.08,,,0.19,,2013-02-19 18:32:00,
2013-02-19 13:42:00,37.0,35.0,29.77,West,259,2.0,12.0,94,0.08,,,0.21,,2013-02-19 18:42:00,
2013-02-19 13:52:00,37.0,35.0,29.77,West,259,2.0,12.0,94,0.08,,,0.21,,2013-02-19 18:52:00,
2013-02-19 14:01:00,37.0,35.0,29.76,West,265,2.0,11.0,94,0.07,,,0.22,,2013-02-19 19:01:00,
2013-02-19 14:11:00,37.0,35.0,29.76,West,265,2.0,11.0,94,0.07,,,0.22,,2013-02-19 19:11:00,
2013-02-19 14:21:00,37.0,35.0,29.75,West,263,1.0,6.0,94,0.04,,,0.22,,2013-02-19 19:21:00,
2013-02-19 14:32:00,37.0,35.0,29.74,WSW,256,3.0,10.0,94,0.04,,,0.23,,2013-02-19 19:32:00,
2013-02-19 14:42:00,37.0,35.0,29.74,WSW,256,3.0,10.0,94,0.04,,,0.23,,2013-02-19 19:42:00,
2013-02-19 14:52:00,38.0,37.0,29.73,West,262,2.0,9.0,95,0.02,,,0.23,,2013-02-19 19:52:00,
2013-02-19 15:01:00,38.0,37.0,29.72,WSW,256,1.0,9.0,95,0.01,,,0.23,,2013-02-19 20:01:00,
2013-02-19 15:12:00,38.0,37.0,29.72,WSW,256,1.0,9.0,95,0.01,,,0.23,,2013-02-19 20:12:00,
2013-02-19 15:22:00,38.0,37.0,29.71,West,261,1.0,9.0,95,0.01,,,0.23,,2013-02-19 20:22:00,
2013-02-19 15:32:00,38.0,37.0,29.70,West,275,1.0,7.0,95,0.00,,,0.23,,2013-02-19 20:32:00,
2013-02-19 15:42:00,38.0,37.0,29.70,West,275,1.0,7.0,95,0.00,,,0.23,,2013-02-19 20:42:00,
2013-02-19 15:52:00,38.0,37.0,29.69,West,279,1.0,14.0,95,0.01,,,0.24,,2013-02-19 20:52:00,
2013-02-19 16:02:00,39.0,38.0,29.69,North,0,0.0,5.0,95,0.01,,,0.24,,2013-02-19 21:02:00,
2013-02-19 16:11:00,39.0,38.0,29.69,North,0,0.0,5.0,95,0.01,,,0.24,,2013-02-19 21:11:00,
2013-02-19 16:21:00,39.0,38.0,29.68,West,263,3.0,9.0,95,0.02,,,0.25,,2013-02-19 21:21:00,
2013-02-19 16:32:00,39.0,38.0,29.67,West,279,2.0,9.0,96,0.03,,,0.26,,2013-02-19 21:32:00,
2013-02-19 16:42:00,39.0,38.0,29.67,West,279,2.0,9.0,96,0.03,,,0.26,,2013-02-19 21:42:00,
2013-02-19 16:52:00,39.0,38.0,29.66,West,269,1.0,6.0,96,0.02,,,0.26,,2013-02-19 21:52:00,
2013-02-19 17:02:00,40.0,39.0,29.66,West,280,1.0,11.0,96,0.02,,,0.26,,2013-02-19 22:02:00,
2013-02-19 17:11:00,40.0,39.0,29.66,West,280,1.0,11.0,96,0.02,,,0.26,,2013-02-19 22:11:00,
2013-02-19 17:21:00,40.0,39.0,29.67,North,0,0.0,6.0,96,0.01,,,0.26,,2013-02-19 22:21:00,
2013-02-19 17:32:00,40.0,39.0,29.65,WNW,291,2.0,11.0,96,0.00,,,0.26,,2013-02-19 22:32:00,
2013-02-19 17:42:00,40.0,39.0,29.65,WNW,291,2.0,11.0,96,0.00,,,0.26,,2013-02-19 22:42:00,
2013-02-19 17:52:00,40.0,39.0,29.66,WNW,292,2.0,9.0,96,0.00,,,0.26,,2013-02-19 22:52:00,
2013-02-19 18:01:00,40.0,39.0,29.67,NW,311,1.0,10.0,96,0.00,,,0.26,,2013-02-19 23:01:00,
2013-02-19 18:11:00,40.0,39.0,29.67,NW,311,1.0,10.0,96,0.00,,,0.26,,2013-02-19 23:11:00,
2013-02-19 18:21:00,40.0,39.0,29.67,WNW,290,1.0,10.0,96,0.00,,,0.26,,2013-02-19 23:21:00,
2013-02-19 18:32:00,40.0,39.0,29.69,WNW,293,2.0,9.0,96,0.00,,,0.26,,2013-02-19 23:32:00,
2013-02-19 18:42:00,40.0,39.0,29.69,WNW,293,2.0,9.0,96,0.00,,,0.26,,2013-02-19 23:42:00,
2013-02-19 18:52:00,40.0,39.0,29.69,NW,313,2.0,11.0,96,0.01,,,0.27,,2013-02-19 23:52:00,
2013-02-19 19:01:00,40.0,39.0,29.70,North,5,1.0,8.0,96,0.01,,,0.27,,2013-02-20 00:01:00,
2013-02-19 19:11:00,40.0,39.0,29.70,North,5,1.0,8.0,96,0.01,,,0.27,,2013-02-20 00:11:00,
2013-02-19 19:21:00,40.0,39.0,29.70,North,0,0.0,5.0,96,0.01,,,0.27,,2013-02-20 00:21:00,
2013-02-19 19:32:00,39.0,38.0,29.69,North,0,0.0,4.0,96,0.01,,,0.27,,2013-02-20 00:32:00,
2013-02-19 19:42:00,39.0,38.0,29.69,North,0,0.0,4.0,96,0.01,,,0.27,,2013-02-20 00:42:00,
2013-02-19 19:52:00,39.0,38.0,29.70,North,0,0.0,4.0,96,0.00,,,0.27,,2013-02-20 00:52:00,
2013-02-19 20:02:00,39.0,38.0,29.69,North,0,0.0,4.0,96,0.00,,,0.27,,2013-02-20 01:02:00,
2013-02-19 20:11:00,39.0,38.0,29.69,North,0,0.0,4.0,96,0.00,,,0.27,,2013-02-20 01:11:00,
2013-02-19 20:21:00,38.0,37.0,29.70,North,0,0.0,4.0,96,0.00,,,0.27,,2013-02-20 01:21:00,
2013-02-19 20:32:00,38.0,37.0,29.71,NNW,348,2.0,13.0,96,0.00,,,0.27,,2013-02-20 01:32:00,
2013-02-19 20:42:00,38.0,37.0,29.71,NNW,348,2.0,13.0,96,0.00,,,0.27,,2013-02-20 01:42:00,
2013-02-19 20:52:00,37.0,36.0,29.71,North,0,0.0,13.0,96,0.00,,,0.27,,2013-02-20 01:52:00,
2013-02-19 21:02:00,36.0,35.0,29.72,North,0,0.0,6.0,95,0.00,,,0.27,,2013-02-20 02:02:00,
2013-02-19 21:11:00,36.0,35.0,29.72,North,0,0.0,6.0,95,0.00,,,0.27,,2013-02-20 02:11:00,
2013-02-19 21:21:00,36.0,35.0,29.72,North,353,1.0,7.0,95,0.00,,,0.27,,2013-02-20 02:21:00,
2013-02-19 21:32:00,35.0,34.0,29.72,North,0,0.0,6.0,95,0.00,,,0.27,,2013-02-20 02:32:00,
2013-02-19 21:42:00,35.0,34.0,29.72,North,0,0.0,6.0,95,0.00,,,0.27,,2013-02-20 02:42:00,
2013-02-19 21:52:00,35.0,33.0,29.73,North,0,0.0,7.0,94,0.00,,,0.27,,2013-02-20 02:52:00,
2013-02-19 22:02:00,35.0,33.0,29.73,NNE,14,1.0,9.0,93,0.00,,,0.27,,2013-02-20 03:02:00,
2013-02-19 22:12:00,35.0,33.0,29.73,NNE,14,1.0,9.0,93,0.00,,,0.27,,2013-02-20 03:12:00,
2013-02-19 22:22:00,34.0,32.0,29.73,North,0,0.0,7.0,92,0.00,,,0.27,,2013-02-20 03:22:00,
2013-02-19 22:32:00,34.0,32.0,29.74,North,0,0.0,10.0,91,0.00,,,0.27,,2013-02-20 03:32:00,
2013-02-19 22:42:00,34.0,32.0,29.74,North,0,0.0,10.0,91,0.00,,,0.27,,2013-02-20 03:42:00,
2013-02-19 22:52:00,34.0,31.0,29.74,NNW,339,1.0,9.0,87,0.00,,,0.27,,2013-02-20 03:52:00,
2013-02-19 23:01:00,34.0,30.0,29.74,North,0,0.0,14.0,84,0.00,,,0.27,,2013-02-20 04:01:00,
2013-02-19 23:11:00,34.0,30.0,29.74,North,0,0.0,14.0,84,0.00,,,0.27,,2013-02-20 04:11:00,
2013-02-19 23:21:00,34.0,29.0,29.74,North,356,1.0,11.0,83,0.00,,,0.27,,2013-02-20 04:21:00,
2013-02-19 23:31:00,34.0,28.0,29.74,NNW,344,2.0,7.0,79,0.00,,,0.27,,2013-02-20 04:31:00,
2013-02-19 23:42:00,34.0,28.0,29.74,NNW,344,2.0,7.0,79,0.00,,,0.27,,2013-02-20 04:42:00,
2013-02-19 23:52:00,33.0,27.0,29.75,North,0,0.0,5.0,78,0.00,,,0.27,,2013-02-20 04:52:00,